[[{"header":{"parameterUnit":"m.s-1","parameterCategory":1,"la1":30.2991,"la2":30.254,"lo1":-89.0895,"lo2":-89.0444,"dy":0.0017,"dx":0.0017,"nx":28,"ny":28,"refTime":"2024-08-19T21:00:00:Z","depth":0,"parameterNumber":2,"parameterNumberName":"U-component_of_WINDS"},"data":[0,0,0,0,0,0,0,0,0,0,0,0,0,0,0,0,0,0,0,0,0,0,0,0,0,0,0,0,0,0,0,0,0,0,0,0,0,0,0,0,0,0,0,0,0,0,0,0,0,0,0,0,0,0,0,0,0,0,1.7058,1.7059,0,1.714,1.7141,1.7142,1.7087,1.7084,1.7081,1.7079,1.7172,1.7177,1.7182,0,0,0,0,0,0,0,0,0,0,0,0,0,1.6862,1.6866,1.7058,1.7059,1.706,1.714,1.7141,1.7143,1.7087,1.7084,1.7081,1.7078,1.7171,1.7176,1.7182,0,0,0,0,0,0,0,0,0,0,0,0,0,1.6947,1.6867,1.7057,1.7041,1.7041,1.714,1.7142,1.7143,1.7088,1.7084,1.708,1.7076,1.7169,1.7176,1.7183,1.7305,0,0,1.7205,1.7208,0,0,0,0,0,0,0,0,1.6942,1.6954,1.7043,1.7043,1.7042,1.7099,1.7107,1.7198,1.7089,1.707,1.7079,1.7075,1.7152,1.716,1.7184,1.7309,1.7313,1.7206,1.721,1.7213,1.7215,0,0,0,0,0,0,0,1.6936,1.695,1.7091,1.7044,1.7044,1.7034,1.7042,1.7124,1.7132,1.7072,1.7068,1.7078,1.7151,1.7177,1.7186,1.7315,1.7206,1.7212,1.7217,1.7219,1.7551,1.7555,0,0,0,0,0,0,1.693,1.6945,1.7088,1.7093,1.6981,1.704,1.7049,1.7085,1.7131,1.7134,1.7081,1.7075,1.7167,1.7178,1.7189,1.734,1.7213,1.722,1.7224,1.7547,1.7552,1.7557,0,0,0,0,0,0,1.6926,1.6944,1.7085,1.7018,1.7035,1.7048,1.7089,1.7089,1.7115,1.7138,1.714,1.7106,1.7164,1.7179,1.7277,1.7342,1.7223,1.723,1.7541,1.7548,1.7554,1.7639,0,0,0,0,0,0,1.6921,1.6942,1.6986,1.702,1.7039,1.7169,1.7092,1.7093,1.7127,1.712,1.7162,1.7165,1.7162,1.7267,1.7285,1.735,1.7236,1.7536,1.7544,1.7552,1.763,1.7647,1.7662,0,0,0,0,0,1.6914,1.7007,1.6988,1.7006,1.7093,1.7172,1.7184,1.7176,1.7132,1.7178,1.7194,1.7164,1.7331,1.7277,1.7297,1.7365,1.7532,1.7542,1.7552,1.7623,1.7644,1.7662,0,0,0,0,0,0,1.6982,1.7011,1.6991,1.7096,1.7132,1.7162,1.722,1.7198,1.7249,1.724,1.7231,1.7241,1.7346,1.7365,1.7304,1.7489,1.7425,1.744,1.7473,1.7493,1.7508,1.7503,1.7242,0,0,0,0,0,1.7009,1.7068,1.709,1.7182,1.7201,1.7208,1.7242,1.7233,1.7271,1.7286,1.7308,1.7349,1.7412,1.7453,1.7511,1.7632,1.7644,1.7689,1.7705,1.7718,1.7732,1.7804,1.7826,1.759,1.7589,1.7589,0,0,1.7066,1.7089,1.7127,1.7196,1.7223,1.7288,1.7221,1.7291,1.7341,1.7298,1.7393,1.7411,1.7456,1.7568,1.7619,1.7588,1.78,1.7731,1.7741,1.7748,1.7816,1.7839,1.7859,1.7596,1.7595,1.7594,0,0,1.7204,1.7225,1.7306,1.7334,1.7375,1.738,1.74,1.7434,1.7445,1.7539,1.751,1.757,1.7676,1.7711,1.7743,1.7899,1.7876,1.7918,1.8002,1.8072,1.8091,1.8108,1.8169,1.819,1.7931,1.7931,1.7931,0,1.7271,1.7364,1.7351,1.7425,1.7459,1.7421,1.7506,1.7535,1.7594,1.7621,1.7584,1.7719,1.7747,1.7869,1.7908,1.7933,1.7959,1.7914,1.8089,1.8105,1.8121,1.8179,1.8201,1.7936,1.7936,1.7935,1.7935,0,1.7447,1.7513,1.7574,1.7631,1.7671,1.775,1.7753,1.7797,1.7785,1.7796,1.7896,1.7928,1.7994,1.8022,1.8011,1.8145,1.8125,1.8089,1.8025,1.8149,1.8204,1.8225,1.7944,1.7942,1.794,1.7939,0,0,1.763,1.768,1.7704,1.7731,1.7775,1.7828,1.7908,1.7971,1.8011,1.8053,1.8124,1.8216,1.8184,1.822,1.8214,1.8275,1.8404,1.8232,1.8233,1.8267,1.856,1.859,1.8615,1.8387,1.8391,1.8394,1.8558,0,1.7775,1.791,1.7903,1.8033,1.8097,1.8064,1.8134,1.8171,1.8184,1.8243,1.8257,1.8325,1.8275,1.8297,1.8356,1.8375,1.8463,1.8363,1.8458,1.8461,1.8451,1.8643,1.8674,1.8827,1.8578,1.8582,1.8584,0,1.796,1.8009,1.8145,1.8184,1.8211,1.8273,1.8334,1.8389,1.8433,1.8438,1.848,1.8465,1.8551,1.8483,1.8605,1.8537,1.8575,1.8591,1.8597,1.8609,1.8533,1.8665,1.8874,1.8899,1.8617,1.8614,1.8612,0,1.8087,1.8186,1.8282,1.8306,1.8352,1.8399,1.8421,1.846,1.85,1.8554,1.8581,1.8644,1.868,1.8732,1.8737,1.8685,1.8862,1.8792,1.8873,1.8874,1.8914,1.8913,1.9138,1.8932,1.8932,1.8931,1.8931,0,1.8251,1.8337,1.834,1.8399,1.8496,1.8488,1.8586,1.8604,1.864,1.8706,1.8681,1.8744,1.8744,1.881,1.8814,1.8918,1.8933,1.8944,1.8945,1.8949,1.8948,1.8977,1.8968,1.8937,1.8936,1.8935,1.8934,0,1.841,1.8414,1.8517,1.8553,1.8564,1.8635,1.8668,1.8727,1.8737,1.8821,1.8841,1.8859,1.8936,1.8944,1.9034,1.9037,1.9164,1.9151,1.9149,1.9148,1.9231,1.9225,1.9486,1.9522,1.9288,1.929,1.9292,0,1.8516,1.8582,1.8625,1.8666,1.8691,1.8757,1.8798,1.8794,1.8839,1.8896,1.895,1.9023,1.9082,1.9207,1.9231,1.9301,1.9293,1.938,1.9304,1.9307,1.9301,1.9299,1.9308,1.9396,1.9398,1.94,1.9402,0,1.8707,1.8707,1.8765,1.8826,1.8876,1.8924,1.897,1.9006,1.9008,1.9061,1.9138,1.9184,1.9275,1.9352,1.9421,1.9448,1.9429,1.9425,1.9449,1.9456,1.9454,1.9462,1.9194,1.942,1.9419,1.9417,1.9416,1.9416,1.8846,1.8905,1.8945,1.9013,1.9047,1.9091,1.9149,1.9167,1.9231,1.9304,1.9298,1.9386,1.9433,1.9524,1.9557,1.9628,1.96,1.9632,1.9641,1.9651,1.9662,1.9439,1.964,1.9639,1.9639,1.9638,1.9638,0,1.904,1.9065,1.9127,1.9191,1.9246,1.9219,1.9269,1.9318,1.9394,1.9438,1.9497,1.9589,1.9664,1.9694,1.9768,1.982,1.9813,1.984,1.9838,1.9847,1.968,1.9654,1.9844,1.9844,1.9844,1.9844,1.9844,1.9844,1.9147,1.9247,1.9252,1.937,1.9395,1.9479,1.9511,1.9553,1.9589,1.9692,1.9753,1.9771,1.9812,1.989,1.9959,1.9966,1.9997,2.0029,2.0033,1.9878,1.9857,1.9838,1.9814,2.0035,2.0035,2.0195,2.0196,2.0197]},{"header":{"parameterUnit":"m.s-1","parameterCategory":1,"la1":30.2991,"la2":30.254,"lo1":-89.0895,"lo2":-89.0444,"dy":0.0017,"dx":0.0017,"nx":28,"ny":28,"refTime":"2024-08-19T21:00:00:Z","depth":0,"parameterNumber":3,"parameterNumberName":"V-component_of_WINDS"},"data":[0,0,0,0,0,0,0,0,0,0,0,0,0,0,0,0,0,0,0,0,0,0,0,0,0,0,0,0,0,0,0,0,0,0,0,0,0,0,0,0,0,0,0,0,0,0,0,0,0,0,0,0,0,0,0,0,0,0,-0.8353,-0.8352,0,-0.8231,-0.823,-0.8228,-0.8281,-0.8284,-0.8287,-0.829,-0.816,-0.8154,-0.8148,0,0,0,0,0,0,0,0,0,0,0,0,0,-0.8629,-0.8623,-0.8353,-0.8352,-0.835,-0.8231,-0.823,-0.8228,-0.828,-0.8284,-0.8287,-0.8291,-0.8162,-0.8155,-0.8148,0,0,0,0,0,0,0,0,0,0,0,0,0,-0.8508,-0.8622,-0.8353,-0.8362,-0.8362,-0.8232,-0.8229,-0.8227,-0.8279,-0.8284,-0.8288,-0.8293,-0.8165,-0.8156,-0.8147,-0.8,0,0,-0.8118,-0.8114,0,0,0,0,0,0,0,0,-0.8515,-0.8498,-0.8362,-0.8361,-0.8361,-0.8276,-0.8279,-0.8151,-0.8278,-0.831,-0.829,-0.8295,-0.8195,-0.8183,-0.8151,-0.7994,-0.7988,-0.8117,-0.8112,-0.8108,-0.8105,0,0,0,0,0,0,0,-0.8523,-0.8503,-0.8305,-0.836,-0.8359,-0.8371,-0.8359,-0.8255,-0.8229,-0.8308,-0.8312,-0.8297,-0.8195,-0.8159,-0.8148,-0.7986,-0.8118,-0.8109,-0.8104,-0.81,-0.7703,-0.7698,0,0,0,0,0,0,-0.8532,-0.851,-0.8309,-0.8301,-0.845,-0.8362,-0.8349,-0.8298,-0.823,-0.8224,-0.8293,-0.83,-0.8173,-0.8159,-0.8144,-0.7966,-0.8108,-0.8099,-0.8094,-0.7708,-0.7702,-0.7696,0,0,0,0,0,0,-0.8538,-0.8513,-0.8314,-0.8406,-0.8382,-0.8353,-0.8296,-0.8294,-0.8258,-0.8219,-0.8214,-0.8261,-0.8176,-0.8157,-0.8035,-0.7963,-0.8095,-0.8086,-0.7714,-0.7706,-0.7699,-0.7611,0,0,0,0,0,0,-0.8545,-0.8515,-0.846,-0.8405,-0.8377,-0.8208,-0.8291,-0.8288,-0.8242,-0.825,-0.8188,-0.8182,-0.8178,-0.8049,-0.8026,-0.7952,-0.8079,-0.772,-0.771,-0.7701,-0.762,-0.7602,-0.7586,0,0,0,0,0,-0.8555,-0.8439,-0.8456,-0.8432,-0.8307,-0.8204,-0.8187,-0.8186,-0.8236,-0.8179,-0.8155,-0.8184,-0.7975,-0.8036,-0.8011,-0.7933,-0.7724,-0.7713,-0.7702,-0.7628,-0.7605,-0.7586,0,0,0,0,0,0,-0.8484,-0.8432,-0.8451,-0.8314,-0.8263,-0.8213,-0.8141,-0.8162,-0.8095,-0.8105,-0.8105,-0.8091,-0.7965,-0.7938,-0.8007,-0.7788,-0.7857,-0.784,-0.781,-0.7788,-0.7771,-0.7779,-0.8071,0,0,0,0,0,-0.8453,-0.8374,-0.8333,-0.8216,-0.819,-0.817,-0.8125,-0.8129,-0.8075,-0.8053,-0.802,-0.7966,-0.7889,-0.7837,-0.7763,-0.7618,-0.7605,-0.7552,-0.7535,-0.7521,-0.7505,-0.7426,-0.7402,-0.766,-0.766,-0.766,0,0,-0.8386,-0.8348,-0.8298,-0.8201,-0.8162,-0.8079,-0.8151,-0.8061,-0.7999,-0.8039,-0.7923,-0.7896,-0.7837,-0.7702,-0.7642,-0.7675,-0.7432,-0.7506,-0.7496,-0.7488,-0.7412,-0.7387,-0.7366,-0.7652,-0.7654,-0.7655,0,0,-0.8223,-0.8187,-0.8086,-0.8046,-0.7987,-0.7975,-0.795,-0.7897,-0.7881,-0.7765,-0.7793,-0.772,-0.7587,-0.7543,-0.7503,-0.7325,-0.7349,-0.7301,-0.7209,-0.7132,-0.7112,-0.7094,-0.7029,-0.7006,-0.7287,-0.7287,-0.7287,0,-0.8148,-0.8026,-0.803,-0.7938,-0.7894,-0.7929,-0.7825,-0.7786,-0.7705,-0.7673,-0.7713,-0.7546,-0.7508,-0.7364,-0.7321,-0.7288,-0.7259,-0.7307,-0.7115,-0.7096,-0.708,-0.7018,-0.6994,-0.7281,-0.7282,-0.7282,-0.7283,0,-0.7935,-0.7851,-0.7776,-0.7698,-0.7646,-0.7548,-0.7537,-0.7483,-0.7493,-0.7476,-0.7357,-0.7313,-0.7231,-0.7198,-0.7206,-0.7055,-0.7078,-0.7116,-0.7185,-0.7049,-0.6991,-0.6968,-0.7273,-0.7275,-0.7277,-0.7278,0,0,-0.7721,-0.765,-0.7621,-0.7587,-0.7525,-0.7459,-0.7363,-0.7285,-0.7238,-0.7182,-0.7101,-0.6988,-0.7023,-0.6978,-0.6981,-0.6914,-0.6774,-0.696,-0.6959,-0.6926,-0.6604,-0.6574,-0.6547,-0.6791,-0.6787,-0.6783,-0.6609,0,-0.7552,-0.7385,-0.7387,-0.7232,-0.7153,-0.7186,-0.7103,-0.7055,-0.7038,-0.6968,-0.6949,-0.6868,-0.6922,-0.6895,-0.6829,-0.6805,-0.6709,-0.6818,-0.6714,-0.671,-0.6726,-0.6517,-0.6484,-0.6322,-0.6586,-0.6583,-0.658,0,-0.7332,-0.727,-0.7107,-0.7058,-0.7025,-0.6949,-0.6878,-0.6811,-0.6758,-0.675,-0.6701,-0.6715,-0.6617,-0.6692,-0.6556,-0.663,-0.6588,-0.657,-0.6564,-0.6552,-0.6635,-0.6497,-0.627,-0.6245,-0.6544,-0.6547,-0.655,0,-0.719,-0.7066,-0.6952,-0.6922,-0.6862,-0.6808,-0.678,-0.6732,-0.6685,-0.6622,-0.6592,-0.6518,-0.6477,-0.642,-0.6414,-0.6469,-0.6277,-0.6351,-0.6266,-0.6266,-0.6221,-0.6224,-0.5982,-0.6198,-0.6199,-0.6199,-0.62,0,-0.6999,-0.6898,-0.6888,-0.6818,-0.6705,-0.6709,-0.6597,-0.6574,-0.6531,-0.6456,-0.6481,-0.641,-0.6408,-0.6335,-0.633,-0.6218,-0.6199,-0.6189,-0.6189,-0.6186,-0.6187,-0.6156,-0.6166,-0.6193,-0.6194,-0.6195,-0.6196,0,-0.682,-0.681,-0.6688,-0.6642,-0.6628,-0.6547,-0.6507,-0.644,-0.6426,-0.6331,-0.6309,-0.6287,-0.6203,-0.6192,-0.6093,-0.609,-0.5954,-0.5967,-0.5972,-0.5973,-0.5888,-0.5895,-0.5616,-0.5579,-0.5822,-0.5819,-0.5817,0,-0.6698,-0.6621,-0.6567,-0.652,-0.649,-0.6413,-0.6365,-0.6366,-0.6316,-0.6251,-0.6191,-0.611,-0.6045,-0.5909,-0.5883,-0.5808,-0.5818,-0.5725,-0.5806,-0.5806,-0.5814,-0.5818,-0.581,-0.5708,-0.5706,-0.5704,-0.5702,0,-0.6482,-0.6481,-0.6412,-0.6341,-0.6285,-0.6229,-0.6176,-0.6136,-0.613,-0.6072,-0.5987,-0.5937,-0.5838,-0.5756,-0.5683,-0.5653,-0.5675,-0.5677,-0.5653,-0.5648,-0.5654,-0.5648,-0.5927,-0.5683,-0.5685,-0.5686,-0.5687,-0.5688,-0.6326,-0.6259,-0.6211,-0.6134,-0.6095,-0.6046,-0.598,-0.5959,-0.5889,-0.5809,-0.5814,-0.572,-0.567,-0.5574,-0.5539,-0.5466,-0.5496,-0.5461,-0.5452,-0.5443,-0.5434,-0.5668,-0.5452,-0.5453,-0.5453,-0.5454,-0.5454,0,-0.611,-0.6081,-0.601,-0.5937,-0.5876,-0.5905,-0.5849,-0.5795,-0.5713,-0.5665,-0.5601,-0.5504,-0.5426,-0.5395,-0.5318,-0.5265,-0.5273,-0.5245,-0.5247,-0.524,-0.5412,-0.5439,-0.5239,-0.5239,-0.5239,-0.5239,-0.5239,-0.5239,-0.599,-0.5878,-0.5872,-0.5741,-0.5713,-0.5622,-0.5587,-0.5542,-0.5503,-0.5394,-0.5329,-0.5311,-0.5269,-0.519,-0.512,-0.5113,-0.5083,-0.5049,-0.5046,-0.5206,-0.5228,-0.5249,-0.5274,-0.5043,-0.5042,-0.488,-0.4878,-0.4877]}]]